Regional Weather Roundup
Issued by NWS

Home | Current Version | Previous Version | Graphics & Text | Print | Product List | Glossary On
Versions: 1 2 3 4 5 6 7 8 9 10 11 12 13 14 15 16 17 18 19 20 21 22 23 24 25 26 27 28 29 30 31 32 33 34 35 36 37 38 39 40 41 42 43 44 45 46 47 48 49 50
000
ASUS44 KMEG 240110
RWRTN
TENNESSEE HOURLY STATE WEATHER ROUNDUP
NATIONAL WEATHER SERVICE MEMPHIS TN
800 PM CDT WED APR 23 2014

TNZ002-004-019-021-049-052-054-088>092-240200-
WEST TENNESSEE

CITY           SKY/WX    TMP DP  RH WIND       PRES   REMARKS
MEMPHIS INTL   PTCLDY    72  34  24 E3        29.93S
NWS MEMPHIS      N/A     67 N/A N/A MISG        N/A
JACKSON        CLEAR     63  39  41 N6        29.96R
DYERSBURG      CLEAR     66  36  32 NE3       29.97S
UNION CITY     CLEAR     63  37  39 NE3       29.97S
PARIS          CLEAR     58  38  47 NE3       29.99S
LEXINGTON      CLEAR     64  34  32 NE3       29.97R
$$

TNZ008-025-027-028-033-062-065-066-240200-
NORTH MIDDLE TENNESSEE

CITY           SKY/WX    TMP DP  RH WIND       PRES   REMARKS
NASHVILLE      PTCLDY    60  34  37 N7        30.00R
DICKSON        CLEAR     61  32  33 NE3       30.00R
PORTLAND         N/A     59  32  36 CALM      30.01R
CLARKSVILLE    CLEAR     61  34  36 CALM      30.00R
SMYRNA         CLEAR     58  39  49 CALM      30.01R
MURFREESBORO   CLEAR     62  35  36 NE5       29.99R
COOKEVILLE     CLEAR     50  39  66 CALM      30.00R
LIVINGSTON     CLEAR     56  26  31 N3        30.02
GALLATIN       CLEAR     61  37  40 NE5       30.01R
CROSSVILLE     CLEAR     59  27  29 N5        30.02R
$$

TNZ061-075-076-078-094-096-097-240200-
SOUTH MIDDLE TENNESSEE

CITY           SKY/WX    TMP DP  RH WIND       PRES   REMARKS
LAWRENCEBURG   CLEAR     61  40  45 NE3       29.97
LEWISBURG      CLEAR     55  43  64 CALM      29.99R
FAYETTEVILLE   CLEAR     60  35  39 N6        29.98R
TULLAHOMA      CLEAR     57  34  41 N5        30.00R
WINCHESTER     CLEAR     61  36  39 N5        29.99R
MCMINNVILLE    CLEAR     61  37  41 N5        30.00R
COLUMBIA       CLEAR     61  46  59 CALM      29.98R
SHELBYVILLE    CLEAR     61  36  39 NE7       30.00R
$$

TNZ017-018-042-046-047-240200-
NORTHEAST TENNESSEE

CITY           SKY/WX    TMP DP  RH WIND       PRES   REMARKS
TRI CITIES     PTCLDY    56  24  29 CALM      30.00R
ELIZABETHTON   CLEAR     55  27  33 CALM      29.99R
$$

TNZ012-013-036-069-073-074-240200-
CENTRAL EAST TENNESSEE

CITY           SKY/WX    TMP DP  RH WIND       PRES   REMARKS
KNOXVILLE      CLEAR     61  31  32 NE7       29.97R
OAK RIDGE      CLEAR     62  28  27 NE3       30.00R
$$

TNZ083-085-099-240200-
SOUTHEAST TENNESSEE

CITY           SKY/WX    TMP DP  RH WIND       PRES   REMARKS
CHATTANOOGA    PTCLDY    62  39  42 NW3       29.95R
$$

SKY/WX REPORTED AS FAIR MEANS FEW OR NO CLOUDS BELOW
12 THOUSAND FEET.




USA.gov is the U.S. government's official web portal to all federal, state and local government web resources and services.